SAEZ Airport Information

Runway Information
Runway 11 Length 10827 ft width 197 ft
Elevation 62 ft Threshold 0 ft Heading 102
Runway 29 Length 10827 ft Width 197 ft
Elevation 66 ft Threshold 0 ft Heading 282
Runway 17 Length 10187 ft width 148 ft
Elevation 62 ft Threshold 0 ft Heading 164
Runway 35 Length 10187 ft Width 148 ft
Elevation 67 ft Threshold 984 ft Heading 344
Airport Frequencies
Type A/D Name BAIRES CON Frequency 124.9 MHZ
Type APP Name EZEIZA APP Frequency 119.9 MHZ
Type ATIS Name ATIS Frequency 127.8 MHZ
Type GCCD Name GND/CLNC D Frequency 121.75 MHZ
Type TWR Name EZEIZA TWR Frequency 118.6 MHZ
Airport Navaids
Type VOR-DME Name Ezeiza Frequency 116500 KHZ
Airport Weather Information & NOTAM
ADDS - METARS form results

(1529 UTC 21 April 2018)
 
METAR text: SAEZ 211500Z 14006KT 9999 SCT013 BKN025 23/21 Q1012 NOSIG
Conditions at: SAEZ (BUENOS AIRES/EZE, AR) observed 1500 UTC 21 April 2018
Temperature: 23.0°C (73°F)
Dewpoint: 21.0°C (70°F) [RH = 89%]
Pressure (altimeter): 29.88 inches Hg (1012.0 mb)
Winds: from the SE (140 degrees) at 7 MPH (6 knots; 3.1 m/s)
Visibility: 6 or more miles (10+ km)
Ceiling: 2500 feet AGL
Clouds: scattered clouds at 1300 feet AGL
broken clouds at 2500 feet AGL
Weather: no significant weather observed at this time